Orbital Elements at Epoch 2459200.5 (2020-Dec-17.0) TDB
Reference: JPL 18 (heliocentric ecliptic J2000)
Element | Value | Uncertainty (1-sigma) | Units |
e | .08105573122853972 | 4.3025e-08 | |
a | 3.161984091341615 | 2.697e-08 | au |
q | 2.905687158684911 | 1.4992e-07 | au |
i | 1.997856818070435 | 4.6331e-06 | deg |
node | 52.50958420760723 | 0.00011772 | deg |
peri | 53.80379231666038 | 0.00012173 | deg |
M | 300.6289853610432 | 3.2359e-05 | deg |
tp | 2459539.195883247984 (2021-Nov-20.69588325) | 0.00018643 | TDB |
period | 2053.70446691454 5.62 | 2.6275e-05 7.194e-08 | d yr |
n | .1752929916644041 | 2.2427e-09 | deg/d |
Q | 3.41828102399832 | 2.9156e-08 | au |
|
| | Orbit Determination Parameters
Additional Information
|